TimeEDT,TemperatureF,Dew PointF,Humidity,Sea Level PressureIn,VisibilityMPH,Wind Direction,Wind SpeedMPH,Gust SpeedMPH,PrecipitationIn,Events,Conditions,WindDirDegrees,DateUTC
12:40 AM,73.4,69.8,88,30.03,10.0,NNE,13.8,-,N/A,Thunderstorm,Mostly Cloudy,20,2013-08-24 04:40:00
12:53 AM,73.9,69.1,85,30.04,10.0,NNE,8.1,-,N/A,Thunderstorm,Mostly Cloudy,20,2013-08-24 04:53:00
1:39 AM,71.6,69.8,94,30.02,10.0,ENE,3.5,-,0.00,,Partly Cloudy,60,2013-08-24 05:39:00
1:53 AM,73.0,70.0,90,30.02,10.0,Calm,Calm,-,0.00,,Clear,0,2013-08-24 05:53:00
2:53 AM,72.0,70.0,93,30.04,10.0,NNW,11.5,-,N/A,,Clear,330,2013-08-24 06:53:00
3:33 AM,71.6,69.8,94,30.03,10.0,NNW,4.6,-,N/A,,Mostly Cloudy,340,2013-08-24 07:33:00
3:43 AM,71.6,69.8,94,30.03,10.0,North,4.6,-,N/A,,Mostly Cloudy,350,2013-08-24 07:43:00
3:49 AM,71.6,69.8,94,30.03,10.0,North,4.6,-,N/A,,Mostly Cloudy,350,2013-08-24 07:49:00
3:53 AM,72.0,70.0,93,30.03,10.0,North,4.6,-,N/A,,Overcast,350,2013-08-24 07:53:00
4:26 AM,71.6,69.8,94,30.03,8.0,North,8.1,-,N/A,,Overcast,360,2013-08-24 08:26:00
4:53 AM,72.0,69.1,91,30.04,8.0,North,10.4,-,N/A,,Mostly Cloudy,10,2013-08-24 08:53:00
5:25 AM,71.6,69.8,94,30.06,8.0,North,11.5,-,N/A,,Overcast,360,2013-08-24 09:25:00
5:33 AM,71.6,68.0,88,30.06,9.0,NNE,12.7,-,N/A,,Overcast,20,2013-08-24 09:33:00
5:53 AM,71.1,69.1,93,30.07,9.0,NNE,10.4,-,N/A,,Overcast,20,2013-08-24 09:53:00
6:53 AM,70.0,68.0,93,30.09,9.0,North,8.1,-,N/A,,Mostly Cloudy,360,2013-08-24 10:53:00
7:32 AM,69.8,66.2,88,30.11,10.0,North,9.2,-,N/A,,Scattered Clouds,10,2013-08-24 11:32:00
7:53 AM,70.0,66.0,87,30.11,10.0,NNE,11.5,-,N/A,,Partly Cloudy,20,2013-08-24 11:53:00
8:31 AM,69.8,64.4,83,30.13,10.0,NNE,13.8,-,N/A,,Mostly Cloudy,20,2013-08-24 12:31:00
8:53 AM,70.0,66.0,87,30.14,10.0,NNE,13.8,-,N/A,,Overcast,20,2013-08-24 12:53:00
9:53 AM,73.9,66.0,76,30.15,10.0,NNE,11.5,-,N/A,,Mostly Cloudy,30,2013-08-24 13:53:00
10:05 AM,75.2,66.2,73,30.15,10.0,North,10.4,-,N/A,,Mostly Cloudy,10,2013-08-24 14:05:00
10:13 AM,75.2,66.2,73,30.16,10.0,NNE,16.1,-,N/A,,Scattered Clouds,30,2013-08-24 14:13:00
10:53 AM,77.0,66.0,69,30.17,10.0,NNE,13.8,20.7,N/A,,Clear,30,2013-08-24 14:53:00
11:53 AM,79.0,66.0,64,30.18,10.0,NNE,12.7,-,N/A,,Partly Cloudy,20,2013-08-24 15:53:00
12:53 PM,81.0,64.9,58,30.18,10.0,NNE,12.7,-,N/A,,Partly Cloudy,20,2013-08-24 16:53:00
1:53 PM,82.0,63.0,52,30.17,10.0,NE,12.7,-,N/A,,Partly Cloudy,50,2013-08-24 17:53:00
2:53 PM,82.9,64.0,53,30.17,10.0,NE,10.4,-,N/A,,Mostly Cloudy,40,2013-08-24 18:53:00
3:53 PM,81.0,64.0,56,30.17,10.0,NNE,12.7,-,N/A,,Overcast,30,2013-08-24 19:53:00
4:53 PM,80.1,64.0,58,30.17,10.0,NNE,11.5,-,N/A,,Overcast,20,2013-08-24 20:53:00
5:53 PM,79.0,64.9,62,30.18,10.0,NE,9.2,-,N/A,,Overcast,40,2013-08-24 21:53:00
6:53 PM,78.1,64.9,64,30.18,10.0,NNE,8.1,-,N/A,,Overcast,30,2013-08-24 22:53:00
7:53 PM,75.0,66.0,73,30.19,10.0,NE,8.1,-,N/A,,Mostly Cloudy,50,2013-08-24 23:53:00
8:53 PM,73.0,66.0,79,30.22,10.0,NNE,5.8,-,N/A,,Scattered Clouds,30,2013-08-25 00:53:00
9:53 PM,70.0,64.9,84,30.22,10.0,NNE,5.8,-,N/A,,Clear,30,2013-08-25 01:53:00
10:53 PM,69.1,64.9,87,30.23,10.0,NNE,8.1,-,N/A,,Clear,30,2013-08-25 02:53:00
11:53 PM,69.1,63.0,81,30.25,10.0,NNE,9.2,-,N/A,,Clear,30,2013-08-25 03:53:00